{"data":{"norad_id":57056,"epoch":"2026-09-20T22:01:42.240864Z","epoch_age_seconds":81517,"freshness":"FRESH","line1":"1 57056U 23088J   26263.91785001  .00000421  00000+0  24814-4 0  9993","line2":"2 57056  43.0007  87.8084 0001566 259.0110 101.0566 15.27578915180198","mean_motion":15.27578915,"eccentricity":0.0001566,"inclination_deg":43.0007,"raan_deg":87.8084,"arg_perigee_deg":259.011,"mean_anomaly_deg":101.0566,"bstar":2.4814e-5,"rev_number":18019,"period_min":94.266815668898,"perigee_km":481.97788267049,"apogee_km":484.12680717332,"semimajor_km":6861.1893449219,"source":"CELESTRAK","updated_at":"2026-09-21T09:00:33.549411Z"}}